Weather History for KBCE - February, 2013

Change the Weather History Date:

Saturday, February 16, 2013

  Actual Average Record
Temperature  
Mean Temperature 26 °F -  
Max Temperature 46 °F 37 °F 56 °F (1977)
Min Temperature 5 °F 12 °F -11 °F (1990)
Degree Days  
Heating Degree Days 40    
Moisture  
Dew Point 10 °F    
Average Humidity 62    
Maximum Humidity 87    
Minimum Humidity 21    
Precipitation  
Precipitation 0.00 in - - ()
Sea Level Pressure  
Sea Level Pressure 30.35 in    
Wind  
Wind Speed 7 mph (WSW)    
Max Wind Speed 12 mph    
Max Gust Speed -    
Visibility 10 miles    
Events      
Averages and records for this station are not official NWS values.
T = Trace of Precipitation, MM = Missing Value Source: NWS Daily Summary

Daily Weather History Graph

Daily Weather History Graph

Search for Another Location

Airport or City:

Trip Planner

Search our weather history database for the weather conditions in past years. The results will help you decide how hot, cold, wet, or windy it might be!

Date:

Astronomy

Feb. 16, 2013 Rise Set
Actual Time 7:16 AM MST 6:09 PM MST
Civil Twilight 6:49 AM MST 6:35 PM MST
Nautical Twilight 6:19 AM MST 7:06 PM MST
Astronomical Twilight 5:48 AM MST 7:37 PM MST
Moon 10:40 AM MST (2/16) 12:04 AM MST (2/16)
Length of Visible Light 11h 46m
Length of Day
10h 52m
Waxing Crescent, 40% of the Moon is Illuminated
Feb 16
Waxing Crescent
Feb 17
First Quarter
Feb 25
Full
Mar 4
Last Quarter
Mar 11
New

Hourly Weather History & Observations

Time (MST) Temp. Windchill Dew Point Humidity Pressure Visibility Wind Dir Wind Speed Gust Speed Precip Events Conditions
12:53 AM 9.0 °F -3.2 °F 5.0 °F 84% 30.48 in 10.0 mi West 8.1 mph - N/A   Clear
1:53 AM 10.0 °F 1.8 °F 6.1 °F 84% 30.46 in 10.0 mi West 4.6 mph - N/A   Clear
2:53 AM 10.9 °F -0.8 °F 6.1 °F 81% 30.44 in 10.0 mi West 8.1 mph - N/A   Clear
3:53 AM 10.0 °F 0.4 °F 7.0 °F 87% 30.44 in 10.0 mi WNW 5.8 mph - N/A   Clear
4:53 AM 7.0 °F -4.5 °F 3.0 °F 84% 30.44 in 10.0 mi West 6.9 mph - N/A   Clear
5:53 AM 7.0 °F -5.7 °F 1.0 °F 77% 30.46 in 10.0 mi West 8.1 mph - N/A   Clear
6:53 AM 5.0 °F -6.9 °F -0.0 °F 80% 30.53 in 10.0 mi West 6.9 mph - N/A   Clear
7:53 AM 7.0 °F -7.5 °F -0.0 °F 73% 30.54 in 10.0 mi West 10.4 mph - N/A   Unknown
8:53 AM 16.0 °F 5.3 °F 6.1 °F 65% 30.51 in 10.0 mi West 8.1 mph - N/A   Clear
9:53 AM 28.9 °F - 10.9 °F 47% 30.43 in 10.0 mi Calm Calm - N/A   Clear
10:53 AM 30.0 °F 26.5 °F 12.9 °F 49% 30.42 in 10.0 mi NNE 3.5 mph - N/A   Clear
11:53 AM 37.9 °F - 12.9 °F 36% 30.37 in 10.0 mi Calm Calm - N/A   Clear
12:53 PM 44.1 °F 42.5 °F 17.1 °F 34% 30.32 in 10.0 mi SE 3.5 mph - N/A   Clear
1:53 PM 46.0 °F - 10.9 °F 24% 30.27 in 10.0 mi Calm Calm - N/A   Clear
2:53 PM 46.9 °F - 9.0 °F 21% 30.23 in 10.0 mi SE 4.6 mph - N/A   Clear
3:53 PM 44.1 °F 39.5 °F 17.1 °F 34% 30.22 in 10.0 mi SE 8.1 mph - N/A   Clear
4:53 PM 42.1 °F 36.1 °F 19.9 °F 41% 30.25 in 10.0 mi SSE 10.4 mph - N/A   Clear
5:53 PM 36.0 °F 28.0 °F 19.9 °F 52% 30.25 in 10.0 mi SE 11.5 mph - N/A   Clear
6:53 PM 34.0 °F 25.5 °F 18.0 °F 52% 30.27 in 10.0 mi SE 11.5 mph - N/A   Clear
7:53 PM 26.1 °F 18.4 °F 18.0 °F 71% 30.31 in 10.0 mi West 6.9 mph - N/A   Clear
8:53 PM 21.0 °F 10.6 °F 14.0 °F 74% 30.27 in 10.0 mi West 9.2 mph - N/A   Clear
9:53 PM 12.0 °F 2.7 °F 7.0 °F 80% 30.25 in 10.0 mi WSW 5.8 mph - N/A   Clear
10:53 PM 12.0 °F 0.5 °F 7.0 °F 80% 30.21 in 10.0 mi WSW 8.1 mph - N/A   Clear
11:53 PM 14.0 °F 5.1 °F 7.0 °F 74% 30.13 in 10.0 mi SW 5.8 mph - N/A   Clear